• In Uzbekistan
  • List of Countries
  • For 7 days
  • Water Temperature
  • Satellite Maps
  • Weather Map
  • Weather Widgets
  • user-avatar
    Login

    Hourly Weather Folkern

    Today, 19 February, Monday

    Time Temperature Precipitation Wind Pressure Humidity
    00:00 +7°C° 0 mm 6 mps 757 mmHg 98%
    01:00 +8°C° 0.3 mm 6 mps 757 mmHg 98%
    02:00 +8°C° 0.3 mm 6 mps 757 mmHg 98%
    03:00 +8°C° 0.3 mm 7 mps 757 mmHg 98%
    04:00 +8°C° 0.1 mm 6 mps 757 mmHg 98%
    05:00 +8°C° 0.1 mm 6 mps 758 mmHg 97%
    06:00 +8°C° 0.1 mm 6 mps 758 mmHg 97%
    07:00 +8°C° 0 mm 6 mps 758 mmHg 97%
    08:00 +8°C° 0 mm 6 mps 758 mmHg 97%
    09:00 +8°C° 0 mm 6 mps 758 mmHg 97%
    10:00 +8°C° 0 mm 6 mps 759 mmHg 97%
    11:00 +8°C° 0 mm 6 mps 759 mmHg 97%
    12:00 +8°C° 0 mm 6 mps 759 mmHg 96%
    13:00 +8°C° 0.1 mm 6 mps 759 mmHg 97%
    14:00 +8°C° 0.1 mm 6 mps 759 mmHg 97%
    15:00 +8°C° 0.1 mm 6 mps 760 mmHg 97%
    16:00 +8°C° 0.4 mm 7 mps 760 mmHg 95%
    17:00 +7°C° 0.4 mm 8 mps 760 mmHg 93%
    18:00 +6°C° 0.4 mm 8 mps 761 mmHg 90%
    19:00 +6°C° 0.4 mm 8 mps 761 mmHg 88%
    20:00 +6°C° 0.4 mm 7 mps 762 mmHg 85%
    21:00 +5°C° 0.4 mm 7 mps 762 mmHg 83%
    22:00 +5°C° 0.1 mm 7 mps 763 mmHg 82%
    23:00 +5°C° 0.1 mm 7 mps 763 mmHg 80%

    Tomorrow, 20 February, Tuesday

    Time Temperature Precipitation Wind Pressure Humidity
    00:00 +5°C° 0.1 mm 8 mps 764 mmHg 79%
    01:00 +5°C° 0 mm 8 mps 764 mmHg 78%
    02:00 +5°C° 0 mm 8 mps 765 mmHg 77%
    03:00 +5°C° 0 mm 8 mps 765 mmHg 76%
    04:00 +5°C° 0 mm 8 mps 766 mmHg 76%
    05:00 +5°C° 0 mm 8 mps 766 mmHg 75%
    06:00 +5°C° 0 mm 8 mps 767 mmHg 75%
    07:00 +5°C° 0 mm 7 mps 767 mmHg 75%
    08:00 +5°C° 0 mm 7 mps 768 mmHg 75%
    09:00 +5°C° 0 mm 7 mps 769 mmHg 74%
    10:00 +5°C° 0 mm 7 mps 769 mmHg 72%
    11:00 +5°C° 0 mm 7 mps 770 mmHg 71%
    12:00 +7°C° 0 mm 6 mps 770 mmHg 69%
    13:00 +7°C° 0 mm 6 mps 771 mmHg 68%
    14:00 +7°C° 0 mm 6 mps 771 mmHg 66%
    15:00 +6°C° 0 mm 5 mps 771 mmHg 65%
    16:00 +6°C° 0 mm 5 mps 772 mmHg 67%
    17:00 +5°C° 0 mm 5 mps 772 mmHg 69%
    18:00 +5°C° 0 mm 4 mps 772 mmHg 71%
    19:00 +5°C° 0 mm 4 mps 772 mmHg 71%
    20:00 +5°C° 0 mm 3 mps 773 mmHg 72%
    21:00 +4°C° 0 mm 3 mps 773 mmHg 73%
    22:00 +5°C° 0 mm 2 mps 773 mmHg 74%
    23:00 +5°C° 0 mm 2 mps 773 mmHg 75%

    Day after tomorrow, 21 February, Wednesday

    Time Temperature Precipitation Wind Pressure Humidity
    00:00 +6°C° 0 mm 1 mps 773 mmHg 75%
    01:00 +6°C° 0 mm 1 mps 773 mmHg 77%
    02:00 +5°C° 0 mm 1 mps 772 mmHg 78%
    03:00 +5°C° 0 mm 1 mps 772 mmHg 79%
    04:00 +5°C° 0 mm 1 mps 772 mmHg 80%
    05:00 +4°C° 0 mm 2 mps 772 mmHg 81%
    06:00 +4°C° 0 mm 2 mps 772 mmHg 82%
    07:00 +3°C° 0 mm 3 mps 772 mmHg 82%
    08:00 +3°C° 0 mm 3 mps 771 mmHg 81%
    09:00 +4°C° 0 mm 4 mps 771 mmHg 81%
    10:00 +4°C° 0 mm 4 mps 771 mmHg 77%
    11:00 +5°C° 0 mm 5 mps 771 mmHg 72%
    12:00 +4°C° 0 mm 6 mps 771 mmHg 68%
    13:00 +4°C° 0 mm 6 mps 770 mmHg 69%
    14:00 +4°C° 0 mm 6 mps 770 mmHg 70%
    15:00 +4°C° 0 mm 7 mps 769 mmHg 71%
    16:00 +4°C° 0 mm 7 mps 769 mmHg 73%
    17:00 +4°C° 0 mm 8 mps 769 mmHg 76%
    18:00 +4°C° 0 mm 8 mps 768 mmHg 79%
    19:00 +4°C° 0 mm 8 mps 768 mmHg 78%
    20:00 +3°C° 0 mm 9 mps 768 mmHg 78%
    21:00 +3°C° 0 mm 9 mps 768 mmHg 77%
    22:00 +3°C° 0 mm 9 mps 768 mmHg 77%
    23:00 +3°C° 0 mm 10 mps 767 mmHg 77%

    22 February, Thursday

    Time Temperature Precipitation Wind Pressure Humidity
    00:00 +3°C° 0 mm 10 mps 767 mmHg 77%
    01:00 +3°C° 0 mm 10 mps 767 mmHg 78%
    02:00 +3°C° 0 mm 10 mps 767 mmHg 79%
    03:00 +3°C° 0 mm 10 mps 766 mmHg 79%
    04:00 +3°C° 0 mm 10 mps 766 mmHg 80%
    05:00 +3°C° 0 mm 10 mps 766 mmHg 81%
    06:00 +3°C° 0 mm 10 mps 766 mmHg 81%
    07:00 +3°C° 0 mm 10 mps 766 mmHg 81%
    08:00 +3°C° 0 mm 10 mps 766 mmHg 81%
    09:00 +3°C° 0 mm 10 mps 766 mmHg 80%
    10:00 +3°C° 0 mm 10 mps 766 mmHg 80%
    11:00 +3°C° 0 mm 11 mps 766 mmHg 79%
    12:00 +3°C° 0 mm 11 mps 766 mmHg 79%
    13:00 +3°C° 0.1 mm 11 mps 765 mmHg 78%
    14:00 +3°C° 0.1 mm 11 mps 765 mmHg 78%
    15:00 +3°C° 0.1 mm 11 mps 765 mmHg 78%
    16:00 +3°C° 0.1 mm 11 mps 765 mmHg 77%
    17:00 +3°C° 0.1 mm 11 mps 765 mmHg 77%
    18:00 +3°C° 0.1 mm 11 mps 765 mmHg 77%
    19:00 +3°C° 0.1 mm 11 mps 765 mmHg 77%
    20:00 +3°C° 0.1 mm 11 mps 765 mmHg 77%
    21:00 +3°C° 0.1 mm 11 mps 765 mmHg 78%
    22:00 +3°C° 0.1 mm 11 mps 765 mmHg 78%
    23:00 +3°C° 0.1 mm 11 mps 765 mmHg 79%

    23 February, Friday

    Time Temperature Precipitation Wind Pressure Humidity
    00:00 +3°C° 0.1 mm 11 mps 765 mmHg 79%
    01:00 +3°C° 0 mm 11 mps 765 mmHg 79%
    02:00 +3°C° 0 mm 11 mps 765 mmHg 78%
    03:00 +3°C° 0 mm 11 mps 765 mmHg 78%
    04:00 +2°C° 0 mm 11 mps 765 mmHg 77%
    05:00 +2°C° 0 mm 11 mps 765 mmHg 76%
    06:00 +2°C° 0 mm 10 mps 765 mmHg 75%
    07:00 +2°C° 0 mm 10 mps 765 mmHg 75%
    08:00 +3°C° 0 mm 10 mps 766 mmHg 74%
    09:00 +3°C° 0 mm 10 mps 766 mmHg 73%
    10:00 +3°C° 0 mm 10 mps 766 mmHg 72%
    11:00 +3°C° 0 mm 10 mps 766 mmHg 71%
    12:00 +3°C° 0 mm 10 mps 767 mmHg 70%
    13:00 +3°C° 0 mm 10 mps 766 mmHg 71%
    14:00 +3°C° 0 mm 10 mps 766 mmHg 72%
    15:00 +3°C° 0 mm 10 mps 766 mmHg 73%
    16:00 +3°C° 0 mm 10 mps 766 mmHg 73%
    17:00 +3°C° 0 mm 10 mps 767 mmHg 73%
    18:00 +2°C° 0 mm 10 mps 767 mmHg 74%
    19:00 +2°C° 0 mm 10 mps 767 mmHg 74%
    20:00 +2°C° 0 mm 10 mps 767 mmHg 73%
    21:00 +2°C° 0 mm 10 mps 768 mmHg 73%
    22:00 +2°C° 0 mm 10 mps 768 mmHg 73%
    23:00 +2°C° 0 mm 10 mps 768 mmHg 73%

    24 February, Saturday

    Time Temperature Precipitation Wind Pressure Humidity
    00:00 +2°C° 0 mm 10 mps 769 mmHg 74%
    01:00 +2°C° 0 mm 10 mps 769 mmHg 74%
    02:00 +1°C° 0 mm 10 mps 769 mmHg 74%
    03:00 +1°C° 0 mm 9 mps 769 mmHg 74%
    04:00 +1°C° 0 mm 9 mps 770 mmHg 74%
    05:00 +1°C° 0 mm 9 mps 770 mmHg 75%
    06:00 0°C° 0 mm 9 mps 770 mmHg 76%
    07:00 0°C° 0 mm 9 mps 770 mmHg 74%
    08:00 0°C° 0 mm 9 mps 771 mmHg 71%
    09:00 0°C° 0 mm 9 mps 771 mmHg 69%
    10:00 +1°C° 0 mm 9 mps 771 mmHg 67%
    11:00 +1°C° 0 mm 9 mps 772 mmHg 64%
    12:00 +2°C° 0 mm 8 mps 772 mmHg 62%
    13:00 +2°C° 0 mm 8 mps 772 mmHg 61%
    14:00 +2°C° 0 mm 8 mps 772 mmHg 60%
    15:00 +4°C° 0 mm 7 mps 772 mmHg 59%
    16:00 +3°C° 0 mm 7 mps 773 mmHg 60%
    17:00 +3°C° 0 mm 7 mps 773 mmHg 62%
    18:00 +2°C° 0 mm 7 mps 774 mmHg 64%
    19:00 +2°C° 0 mm 7 mps 774 mmHg 65%
    20:00 +1°C° 0 mm 8 mps 774 mmHg 66%
    21:00 +1°C° 0 mm 8 mps 775 mmHg 68%
    22:00 +1°C° 0 mm 8 mps 775 mmHg 68%
    23:00 0°C° 0 mm 8 mps 776 mmHg 69%
    Show more